Location: Thistledown
(37.9936°N, 107.6998°W)
Time: 00:00:46
(UTC+00:00)

Daily predictions for brighter satellites

Satellite Brightness Start Highest point End
(mag) Time Altitude Azimuth Time Altitude Azimuth Time Altitude Azimuth
Cosmos 2297 Rocket 2.8 01:16:34 10° NNW 01:22:10 65° WSW 01:27:44 10° S
Cosmos 1331 Rocket 4.4 01:18:42 10° S 01:23:41 44° ESE 01:28:41 10° NNE
Cosmos 220 Rocket 4.3 01:20:34 10° S 01:24:31 43° ESE 01:28:32 10° NNE
Cosmos 1500 Rocket 3.5 01:20:41 10° S 01:25:02 82° E 01:29:23 10° N
COSMOS 2455 3.7 01:20:03 10° N 01:25:13 29° NE 01:30:22 10° ESE
CZ-4B R/B 1.2 01:22:20 10° N 01:25:22 80° WNW 01:28:23 10° SSW
CZ-2C R/B 3.3 01:19:39 10° SSE 01:25:28 78° ENE 01:31:11 10° N
Okean-O 3.3 01:22:42 10° SE 01:26:39 33° ENE 01:30:38 10° N
CZ-2C R/B 3.6 01:22:30 10° NE 01:27:01 25° E 01:31:26 10° SSE
COSMO-SKYMED 1 2.8 01:23:42 10° N 01:28:03 75° WNW 01:32:22 10° SSW
Lacrosse 5 rocket 2.3 01:25:20 10° NNW 01:29:21 33° NE 01:33:09 10° ESE
Meteor 2-6 Rocket 4.3 01:23:52 10° N 01:29:36 89° E 01:35:08 10° S
Cosmos 1515 Rocket 3.9 01:25:27 10° NNW 01:29:51 73° W 01:34:16 10° S
Gbstr 26 Del rocket 3.1 01:29:25 10° SW 01:33:32 90° NNW 01:38:33 10° NE
Sich 1 3.6 01:29:42 10° SSE 01:33:40 36° E 01:37:42 10° NNE
Cosmos 1709 Rocket 4.2 01:32:55 10° S 01:39:02 80° W 01:45:16 10° N
Cosmos 1818 3.6 01:35:17 10° NNW 01:40:47 77° ENE 01:46:14 10° SE
Cosmos 2219 4.4 01:36:35 10° NW 01:41:56 46° WSW 01:47:14 10° S
ERS-2 2.2 01:41:14 10° NNE 01:44:50 56° ESE 01:48:25 10° S
Cosmos 2181 Rocket 4.1 01:41:25 10° N 01:47:50 65° E 01:54:11 10° SSE
Cosmos 44 3.6 01:43:24 10° NNW 01:48:48 58° ENE 01:54:03 10° SE
Cosmos 1980 Rocket 2.3 01:44:21 10° SSW 01:49:59 85° WNW 01:55:42 10° NNE
Cosmos 1707 Rocket 4.3 01:46:09 10° NNE 01:50:01 29° ENE 01:53:51 10° SE
SJ-11-01 4.3 01:45:29 10° SSE 01:50:02 58° ENE 01:54:39 10° N
Cosmos 1633 Rocket 3.9 01:46:37 10° SSE 01:50:20 27° E 01:54:04 10° NNE
RESURS DK-1 3.7 01:46:41 10° NW 01:50:36 42° WSW 01:54:30 10° S
Cosmos 1302 Rocket 4.4 01:47:13 10° S 01:52:00 39° ESE 01:56:48 10° NE
SAR-Lupe-4 3.5 01:49:14 10° NNE 01:52:48 64° ESE 01:56:20 10° S
Timation 1 Rocket 4.4 01:51:42 10° NNW 01:57:41 83° WSW 02:03:38 10° SSE
USA 305 4.0 01:55:10 10° WSW 01:59:13 41° NW 02:03:17 10° NE
Cosmos 2322 Rocket 3.2 01:55:38 10° SSE 01:59:54 23° E 02:03:06 14° ENE
Cosmos 1867 3.8 01:57:04 10° SW 02:02:29 72° WNW 02:07:57 10° NNE
PSLV R/B 4.2 01:58:39 10° N 02:02:45 72° WNW 02:06:48 10° SSW
CZ-4 R/B 1.5 02:00:19 10° S 02:04:08 71° WSW 02:07:59 10° NNW
ERBS 3.0 02:01:29 10° SSW 02:04:30 33° SE 02:05:28 27° E
Atlas Centaur 2 4.4 02:01:55 10° WSW 02:06:02 17° SSW 02:09:40 10° S
USA 307 4.2 02:03:14 10° WSW 02:07:14 38° NW 02:11:13 10° NNE
Cosmos 2082 4.1 02:01:45 10° NNW 02:07:19 67° WSW 02:12:52 10° S
Cosmos 1741 Rocket 4.4 02:02:33 10° NNW 02:07:51 68° WSW 02:13:05 10° S
SAR-Lupe-1 4.4 02:07:17 10° N 02:10:51 69° WNW 02:14:25 10° SSW
USA 306 4.4 02:09:37 10° W 02:13:30 33° NW 02:17:23 10° NNE
Meteor 1-20 Rocket 4.1 02:08:53 10° S 02:14:15 62° E 02:19:39 10° NNE
USA 308 4.4 02:13:42 10° W 02:17:34 32° NW 02:21:15 11° NNE
HJ-1C 3.3 02:15:49 10° S 02:19:09 84° WSW 02:22:30 10° NNW
SL-16 R/B 2.4 02:14:00 10° S 02:19:20 44° ESE 02:24:42 10° NE
Cosmos 1689 Rocket 3.6 02:16:52 10° N 02:19:33 36° WNW 02:22:13 10° SW
Abrixas rocket 1.6 02:18:47 10° SW 02:21:03 61° S 02:21:03 61° S
Cosmos 1470 Rocket 4.1 02:18:34 10° SSE 02:22:38 35° E 02:26:41 10° NNE
Ariane Rocket 4.0 02:24:08 25° ENE 02:24:08 25° ENE 02:27:58 10° NNE
SJ-6B 4.3 02:26:40 22° NE 02:26:40 22° NE 02:28:47 10° NNE
SeaSat 1 3.9 02:21:21 10° N 02:25:52 37° WNW 02:30:22 10° SW
Cosmos 1271 Rocket 2.5 02:25:43 10° N 02:29:26 70° E 02:31:40 23° SSE
Cosmos 1602 3.6 02:27:49 10° S 02:31:39 69° E 02:35:31 10° NNE
DMSP B5D2-2 4.0 02:27:02 10° NNE 02:32:15 66° ESE 02:37:25 10° S
Cosmos 1461 3.1 02:32:11 10° SSW 02:36:52 84° ESE 02:39:40 25° NNE
Cosmos 2327 Rocket 4.4 02:31:47 10° S 02:38:08 72° E 02:44:27 10° N
Okean 1 4.3 02:34:58 10° N 02:37:25 32° NNE 02:37:25 32° NNE
GP-B 3.4 02:39:48 44° NE 02:39:48 44° NE 02:43:26 10° N
SL-08 RB Rocket 3.7 02:35:17 10° S 02:39:45 78° WSW 02:44:17 10° NNW
Cosmos 2263 Rocket 2.0 02:34:50 10° NNW 02:40:24 68° ENE 02:43:04 31° SE
Cosmos 2154 Rocket 3.9 02:38:55 10° S 02:45:09 82° E 02:51:23 10° N
USA 234 4.3 02:39:18 10° NE 02:45:21 42° NNW 02:51:23 10° W
Cosmos 1666 Rocket 4.3 02:41:26 10° SSW 02:45:42 53° W 02:49:57 10° N
H-2A R/B 3.8 02:41:38 10° SSW 02:46:30 35° W 02:51:28 10° NNW
Meteor 1-14 Rocket 4.2 02:41:14 10° S 02:46:42 55° E 02:52:08 10° NNE
Nadezhda 3 Rocket 3.9 02:43:24 10° N 02:49:45 70° E 02:56:05 10° SSE
Cosmos 1862 Rocket 3.4 02:46:56 10° N 02:51:25 76° E 02:51:50 69° SE
ARGOS 4.2 02:46:29 10° S 02:51:39 46° W 02:56:52 10° NNW
Cosmos 1610 Rocket 4.5 02:49:47 10° S 02:55:55 83° W 03:02:10 10° N
MetOp-A 4.0 02:58:57 32° SSE 03:01:32 88° ENE 03:06:55 10° NNW
Meteor 2-4 Rocket 4.4 02:56:12 10° N 03:00:25 40° NE 03:00:25 40° NE
CZ-2C R/B 4.0 03:02:17 10° N 03:07:22 38° WNW 03:12:20 10° SW
Lacrosse 5 rocket 3.0 03:04:40 10° WNW 03:08:26 30° WSW 03:09:24 26° SSW
Meteor 1-18 Rocket 4.2 03:02:46 10° N 03:08:45 89° E 03:11:03 40° S
BREEZE-M DEB (TANK) 3.2 03:04:48 10° WSW 03:09:30 45° WNW 03:09:30 45° WNW
COSMOS 2455 3.8 03:05:37 10° NW 03:11:18 45° WSW 03:16:06 14° S
Cosmos 1486 Rocket 4.3 03:08:09 10° NNW 03:12:20 54° N 03:12:20 54° N
Cosmos 2360 Rocket 4.0 03:12:42 10° S 03:14:08 18° S 03:14:08 18° S
Cosmos 1844 Rocket 4.4 03:13:29 10° N 03:15:29 19° NNE 03:15:29 19° NNE
Cosmos 1992 Rocket 4.1 03:16:05 10° SSW 03:20:46 68° WSW 03:20:46 68° WSW
Cosmos 2341 Rocket 3.9 03:24:03 10° S 03:30:24 85° W 03:36:45 10° N
Cosmos 968 Rocket 4.3 03:35:25 10° NNW 03:39:31 47° WNW 03:39:31 47° WNW
Cosmos 2322 Rocket 3.1 03:38:15 10° SW 03:43:35 44° WNW 03:45:08 36° NNW
SL-16 R/B 4.2 03:59:00 10° WSW 04:03:36 25° WNW 04:07:42 12° N
Cosmos 2082 Rocket 3.9 10:37:25 29° NE 10:37:25 29° NE 10:40:12 10° NNE
Cosmos 1980 Rocket 3.7 10:44:24 32° NE 10:45:22 34° ENE 10:50:28 10° SE
USA 229 DEB 4.4 11:04:08 41° N 11:04:08 41° N 11:08:48 10° NNE
USA 229 4.4 11:04:13 41° N 11:04:13 41° N 11:08:54 10° NNE
CZ-2C R/B 4.5 11:04:00 10° NNE 11:05:24 19° NNE 11:05:24 19° NNE
Cosmos 494 Rocket 4.5 11:17:09 55° ENE 11:17:09 55° ENE 11:21:26 10° NNE
NOSS 3-1 (A) 4.3 11:20:38 35° N 11:20:38 35° N 11:24:42 10° NNE
ALOS 3.0 11:17:29 10° NNE 11:21:15 50° NE 11:21:15 50° NE
Cosmos 1553 Rocket 4.3 11:20:50 10° S 11:27:08 66° E 11:33:27 10° NNE
Nadezhda 2 Rocket 4.4 11:22:58 10° N 11:29:22 88° E 11:35:48 10° S
ISS -1.0 11:35:04 16° NNE 11:35:04 16° NNE 11:35:55 10° NE
Cosmos 2221 4.0 11:32:48 10° SSE 11:36:48 36° E 11:40:49 10° NNE
Cosmos 292 Rocket 3.8 11:37:51 64° N 11:38:30 77° ENE 11:43:18 10° SSE
NOSS 2-2 (D) 4.1 11:44:25 42° ESE 11:44:25 42° ESE 11:47:29 10° NE
H-2A R/B 2.5 11:39:53 10° SSE 11:44:11 60° ENE 11:48:26 10° N
BREEZE-M DEB (TANK) 3.9 11:45:54 50° NW 11:46:04 50° NW 11:49:24 10° NE
CZ-4B R/B 4.1 11:48:39 10° ESE 11:51:04 19° ENE 11:53:26 10° NNE
Cosmos 1331 Rocket 4.3 11:47:35 10° NNW 11:52:44 64° ENE 11:57:49 10° SSE
BREEZE-M DEB (TANK) 4.2 11:53:29 22° NE 11:53:29 22° NE 11:55:56 10° E
CBERS 1 LM4 rocket 4.2 11:50:01 10° N 11:54:54 75° WNW 11:56:11 48° SW
